Time,TemperatureF,DewpointF,PressureIn,WindDirection,WindDirectionDegrees,WindSpeedMPH,WindSpeedGustMPH,Humidity,HourlyPrecipIn,Conditions,Clouds,dailyrainin,SoftwareType,DateUTC
2013-04-19 00:01:00,57.4,54.5,29.88,SW,225,1.8,7.8,90,0.00,,,0.00,Weather8,2013-04-19 04:01:00,
2013-04-19 00:06:00,57.2,54.4,29.88,SSE,157,3.8,4.7,90,0.00,,,0.00,Weather8,2013-04-19 04:06:00,
2013-04-19 00:11:00,57.2,54.4,29.88,South,180,1.8,4.7,90,0.00,,,0.00,Weather8,2013-04-19 04:11:00,
2013-04-19 00:16:00,57.2,54.4,29.88,SW,225,1.8,4.0,90,0.00,,,0.00,Weather8,2013-04-19 04:16:00,
2013-04-19 00:21:00,57.1,54.2,29.87,South,180,3.1,4.0,90,0.00,,,0.00,Weather8,2013-04-19 04:21:00,
2013-04-19 00:26:00,57.1,54.2,29.87,WSW,247,3.4,5.1,90,0.00,,,0.00,Weather8,2013-04-19 04:26:00,
2013-04-19 00:31:00,56.9,54.0,29.87,SSE,157,1.8,5.1,90,0.00,,,0.00,Weather8,2013-04-19 04:31:00,
2013-04-19 00:36:00,56.9,54.0,29.87,South,180,1.8,3.4,90,0.00,,,0.00,Weather8,2013-04-19 04:36:00,
2013-04-19 00:41:00,56.7,53.8,29.86,South,180,3.8,3.8,90,0.00,,,0.00,Weather8,2013-04-19 04:41:00,
2013-04-19 00:46:00,56.7,53.8,29.86,SSW,202,2.2,3.8,90,0.00,,,0.00,Weather8,2013-04-19 04:46:00,
2013-04-19 00:51:00,56.7,54.1,29.86,SSW,202,2.2,4.3,91,0.00,,,0.00,Weather8,2013-04-19 04:51:00,
2013-04-19 00:54:00,56.7,54.1,29.86,SSE,157,1.8,4.3,91,0.00,,,0.00,Weather8,2013-04-19 04:54:00,
2013-04-19 00:55:00,56.9,54.3,29.86,South,180,3.1,4.3,91,0.00,,,0.00,Weather8,2013-04-19 04:55:00,
2013-04-19 00:56:00,56.9,54.0,29.86,SE,135,4.7,4.7,90,0.00,,,0.00,Weather8,2013-04-19 04:56:00,
2013-04-19 01:01:00,56.9,54.3,29.86,SSW,202,2.5,5.8,91,0.00,,,0.00,Weather8,2013-04-19 05:01:00,
2013-04-19 01:06:00,56.9,54.0,29.86,South,180,2.7,5.8,90,0.00,,,0.00,Weather8,2013-04-19 05:06:00,
2013-04-19 01:11:00,57.1,54.5,29.85,SSW,202,2.9,5.8,91,0.00,,,0.00,Weather8,2013-04-19 05:11:00,
2013-04-19 01:16:00,57.2,54.4,29.85,SSW,202,3.8,5.1,90,0.00,,,0.00,Weather8,2013-04-19 05:16:00,
2013-04-19 01:21:00,57.2,54.6,29.85,SSW,202,1.8,5.1,91,0.00,,,0.00,Weather8,2013-04-19 05:21:00,
2013-04-19 01:26:00,57.1,54.2,29.85,SSW,202,3.8,5.1,90,0.00,,,0.00,Weather8,2013-04-19 05:26:00,
2013-04-19 01:31:00,57.1,54.5,29.85,South,180,2.0,4.5,91,0.00,,,0.00,Weather8,2013-04-19 05:31:00,
2013-04-19 01:36:00,57.2,54.6,29.85,SSW,202,2.7,5.4,91,0.00,,,0.00,Weather8,2013-04-19 05:36:00,
2013-04-19 01:41:00,57.2,54.6,29.85,SW,225,3.4,5.4,91,0.00,,,0.00,Weather8,2013-04-19 05:41:00,
2013-04-19 01:46:00,57.4,54.8,29.85,SSW,202,2.0,5.1,91,0.00,,,0.00,Weather8,2013-04-19 05:46:00,
2013-04-19 01:51:00,57.4,54.8,29.85,SW,225,2.5,3.8,91,0.00,,,0.00,Weather8,2013-04-19 05:51:00,
2013-04-19 01:56:00,57.4,54.8,29.84,South,180,2.2,3.8,91,0.00,,,0.00,Weather8,2013-04-19 05:56:00,
2013-04-19 02:01:00,57.6,55.0,29.84,SSW,202,4.7,4.7,91,0.00,,,0.00,Weather8,2013-04-19 06:01:00,
2013-04-19 02:06:00,57.6,55.0,29.84,SSW,202,1.6,4.7,91,0.00,,,0.00,Weather8,2013-04-19 06:06:00,
2013-04-19 02:11:00,57.6,55.0,29.83,SSW,202,2.9,5.1,91,0.00,,,0.00,Weather8,2013-04-19 06:11:00,
2013-04-19 02:16:00,57.6,55.0,29.83,SSW,202,2.2,5.1,91,0.00,,,0.00,Weather8,2013-04-19 06:16:00,
2013-04-19 02:21:00,57.8,55.2,29.82,SSW,202,2.2,5.1,91,0.00,,,0.00,Weather8,2013-04-19 06:21:00,
2013-04-19 02:26:00,57.8,55.2,29.83,SW,225,1.8,3.8,91,0.00,,,0.00,Weather8,2013-04-19 06:26:00,
2013-04-19 02:31:00,58.0,55.4,29.83,SW,225,1.6,3.8,91,0.00,,,0.00,Weather8,2013-04-19 06:31:00,
2013-04-19 02:36:00,58.1,55.5,29.83,SW,225,1.1,4.7,91,0.00,,,0.00,Weather8,2013-04-19 06:36:00,
2013-04-19 02:41:00,58.5,55.9,29.83,SW,225,5.4,6.7,91,0.00,,,0.00,Weather8,2013-04-19 06:41:00,
2013-04-19 02:46:00,58.7,56.1,29.82,SSW,202,2.2,6.7,91,0.00,,,0.00,Weather8,2013-04-19 06:46:00,
2013-04-19 02:51:00,58.9,56.0,29.82,SSW,202,3.8,6.7,90,0.00,,,0.00,Weather8,2013-04-19 06:51:00,
2013-04-19 02:56:00,59.0,56.4,29.82,SW,225,5.4,5.4,91,0.00,,,0.00,Weather8,2013-04-19 06:56:00,
2013-04-19 03:01:00,59.4,56.8,29.81,SSW,202,5.1,5.8,91,0.00,,,0.00,Weather8,2013-04-19 07:01:00,
2013-04-19 03:06:00,59.4,56.8,29.81,SSW,202,6.3,6.3,91,0.00,,,0.00,Weather8,2013-04-19 07:06:00,
2013-04-19 03:11:00,59.4,56.8,29.81,SSE,157,4.9,6.9,91,0.00,,,0.00,Weather8,2013-04-19 07:11:00,
2013-04-19 03:16:00,59.4,56.8,29.81,SW,225,2.7,6.9,91,0.00,,,0.00,Weather8,2013-04-19 07:16:00,
2013-04-19 03:21:00,59.6,57.0,29.80,SSW,202,2.2,7.6,91,0.00,,,0.00,Weather8,2013-04-19 07:21:00,
2013-04-19 03:26:00,59.4,56.8,29.80,SSW,202,4.3,7.6,91,0.00,,,0.00,Weather8,2013-04-19 07:26:00,
2013-04-19 03:31:00,59.4,56.8,29.80,South,180,4.7,5.8,91,0.00,,,0.00,Weather8,2013-04-19 07:31:00,
2013-04-19 03:36:00,59.4,56.8,29.80,SSW,202,2.7,5.8,91,0.00,,,0.00,Weather8,2013-04-19 07:36:00,
2013-04-19 03:41:00,59.4,56.8,29.80,South,180,4.5,5.8,91,0.00,,,0.00,Weather8,2013-04-19 07:41:00,
2013-04-19 03:46:00,59.4,56.8,29.79,South,180,3.4,5.6,91,0.00,,,0.00,Weather8,2013-04-19 07:46:00,
2013-04-19 03:51:00,59.4,56.8,29.79,SSW,202,5.1,5.4,91,0.00,,,0.00,Weather8,2013-04-19 07:51:00,
2013-04-19 03:56:00,59.2,56.6,29.79,SSW,202,2.2,5.4,91,0.00,,,0.00,Weather8,2013-04-19 07:56:00,
2013-04-19 04:01:00,59.2,56.6,29.79,SSW,202,4.0,5.1,91,0.00,,,0.00,Weather8,2013-04-19 08:01:00,
2013-04-19 04:06:00,59.0,56.4,29.78,SW,225,4.3,4.7,91,0.00,,,0.00,Weather8,2013-04-19 08:06:00,
2013-04-19 04:11:00,59.0,56.4,29.78,SSW,202,2.5,6.5,91,0.00,,,0.00,Weather8,2013-04-19 08:11:00,
2013-04-19 04:16:00,59.0,56.2,29.79,SSW,202,5.4,6.5,90,0.00,,,0.00,Weather8,2013-04-19 08:16:00,
2013-04-19 04:21:00,59.0,56.2,29.79,SW,225,3.4,6.3,90,0.00,,,0.00,Weather8,2013-04-19 08:21:00,
2013-04-19 04:26:00,58.9,56.0,29.79,SSW,202,6.3,6.3,90,0.00,,,0.00,Weather8,2013-04-19 08:26:00,
2013-04-19 04:31:00,58.9,56.0,29.79,SSW,202,3.4,6.3,90,0.00,,,0.00,Weather8,2013-04-19 08:31:00,
2013-04-19 04:36:00,58.9,56.0,29.79,SW,225,3.1,6.3,90,0.00,,,0.00,Weather8,2013-04-19 08:36:00,
2013-04-19 04:41:00,58.7,55.8,29.79,SSW,202,3.4,4.5,90,0.00,,,0.00,Weather8,2013-04-19 08:41:00,
2013-04-19 04:46:00,58.7,55.8,29.79,SW,225,3.8,3.8,90,0.00,,,0.00,Weather8,2013-04-19 08:46:00,
2013-04-19 04:51:00,58.7,55.8,29.79,SW,225,3.8,3.8,90,0.00,,,0.00,Weather8,2013-04-19 08:51:00,
2013-04-19 04:56:00,58.7,55.8,29.79,SW,225,3.8,3.8,90,0.00,,,0.00,Weather8,2013-04-19 08:56:00,
2013-04-19 05:01:00,58.3,55.4,29.78,SSW,202,3.1,3.8,90,0.00,,,0.00,Weather8,2013-04-19 09:01:00,
2013-04-19 05:06:00,58.3,55.4,29.78,SSW,202,2.2,4.5,90,0.00,,,0.00,Weather8,2013-04-19 09:06:00,
2013-04-19 05:11:00,58.1,55.3,29.77,SSW,202,3.6,4.5,90,0.00,,,0.00,Weather8,2013-04-19 09:11:00,
2013-04-19 05:16:00,58.1,55.3,29.77,SSW,202,1.6,5.1,90,0.00,,,0.00,Weather8,2013-04-19 09:16:00,
2013-04-19 05:21:00,58.1,55.3,29.77,SW,225,2.5,5.1,90,0.00,,,0.00,Weather8,2013-04-19 09:21:00,
2013-04-19 05:26:00,58.1,55.3,29.77,SW,225,3.1,5.1,90,0.00,,,0.00,Weather8,2013-04-19 09:26:00,
2013-04-19 05:31:00,58.3,55.4,29.77,South,180,4.9,4.9,90,0.00,,,0.00,Weather8,2013-04-19 09:31:00,
2013-04-19 05:36:00,58.3,55.4,29.77,SW,225,2.7,6.0,90,0.00,,,0.00,Weather8,2013-04-19 09:36:00,
2013-04-19 05:41:00,58.3,55.4,29.77,SW,225,1.6,6.0,90,0.00,,,0.00,Weather8,2013-04-19 09:41:00,
2013-04-19 05:46:00,58.1,55.3,29.77,SW,225,4.0,4.0,90,0.00,,,0.00,Weather8,2013-04-19 09:46:00,
2013-04-19 05:51:00,58.1,55.3,29.77,SSW,202,3.8,4.0,90,0.00,,,0.00,Weather8,2013-04-19 09:51:00,
2013-04-19 05:56:00,58.3,55.4,29.77,SSW,202,4.5,4.5,90,0.00,,,0.00,Weather8,2013-04-19 09:56:00,
2013-04-19 06:01:00,58.3,55.4,29.77,SSW,202,3.4,4.5,90,0.00,,,0.00,Weather8,2013-04-19 10:01:00,
2013-04-19 06:06:00,58.3,55.4,29.77,SSW,202,2.5,4.5,90,0.00,,,0.00,Weather8,2013-04-19 10:06:00,
2013-04-19 06:11:00,58.1,55.3,29.77,SW,225,1.8,3.4,90,0.00,,,0.00,Weather8,2013-04-19 10:11:00,
2013-04-19 06:16:00,58.1,55.3,29.77,SSW,202,2.5,2.9,90,0.00,,,0.00,Weather8,2013-04-19 10:16:00,
2013-04-19 06:21:00,58.1,55.3,29.77,SSW,202,6.3,6.3,90,0.00,,,0.00,Weather8,2013-04-19 10:21:00,
2013-04-19 06:26:00,58.3,55.4,29.77,SSW,202,1.8,6.3,90,0.00,,,0.00,Weather8,2013-04-19 10:26:00,
2013-04-19 06:31:00,58.5,55.6,29.77,ESE,112,2.2,6.3,90,0.00,,,0.00,Weather8,2013-04-19 10:31:00,
2013-04-19 06:36:00,58.7,55.8,29.76,SW,225,3.8,7.6,90,0.00,,,0.00,Weather8,2013-04-19 10:36:00,
2013-04-19 06:41:00,58.9,56.0,29.77,SSW,202,2.5,7.6,90,0.00,,,0.00,Weather8,2013-04-19 10:41:00,
2013-04-19 06:46:00,59.0,56.2,29.77,SSW,202,3.4,7.6,90,0.00,,,0.00,Weather8,2013-04-19 10:46:00,
2013-04-19 06:51:00,59.2,56.6,29.77,South,180,2.2,4.7,91,0.00,,,0.00,Weather8,2013-04-19 10:51:00,
2013-04-19 06:56:00,59.4,56.8,29.77,SSW,202,3.8,5.8,91,0.00,,,0.00,Weather8,2013-04-19 10:56:00,
2013-04-19 07:01:00,59.6,57.0,29.77,SW,225,2.7,5.8,91,0.00,,,0.00,Weather8,2013-04-19 11:01:00,
2013-04-19 07:06:00,59.9,57.3,29.78,SW,225,6.3,6.3,91,0.00,,,0.00,Weather8,2013-04-19 11:06:00,
2013-04-19 07:11:00,60.1,57.5,29.78,SW,225,4.0,6.3,91,0.00,,,0.00,Weather8,2013-04-19 11:11:00,
2013-04-19 07:16:00,60.3,57.7,29.78,SSW,202,2.7,6.3,91,0.00,,,0.00,Weather8,2013-04-19 11:16:00,
2013-04-19 07:21:00,60.3,57.7,29.78,SW,225,4.5,6.3,91,0.00,,,0.00,Weather8,2013-04-19 11:21:00,
2013-04-19 07:26:00,60.5,57.9,29.78,SSW,202,6.3,6.3,91,0.00,,,0.00,Weather8,2013-04-19 11:26:00,
2013-04-19 07:31:00,60.7,58.1,29.78,SSW,202,4.9,6.3,91,0.00,,,0.00,Weather8,2013-04-19 11:31:00,
2013-04-19 07:36:00,60.8,58.2,29.77,SW,225,8.1,8.1,91,0.00,,,0.00,Weather8,2013-04-19 11:36:00,
2013-04-19 07:41:00,60.8,58.2,29.78,South,180,3.8,8.1,91,0.00,,,0.00,Weather8,2013-04-19 11:41:00,
2013-04-19 07:46:00,61.0,58.1,29.77,SSE,157,3.4,8.1,90,0.00,,,0.00,Weather8,2013-04-19 11:46:00,
2013-04-19 07:51:00,61.0,58.1,29.77,West,270,1.1,4.7,90,0.00,,,0.00,Weather8,2013-04-19 11:51:00,
2013-04-19 07:56:00,61.2,58.3,29.77,WSW,247,3.1,4.7,90,0.00,,,0.00,Weather8,2013-04-19 11:56:00,
2013-04-19 08:09:00,62.1,59.2,29.77,SSW,202,2.5,4.9,90,0.00,,,0.00,Weather8,2013-04-19 12:09:00,
2013-04-19 08:14:00,62.3,59.4,29.77,South,180,2.9,4.9,90,0.00,,,0.00,Weather8,2013-04-19 12:14:00,
2013-04-19 08:19:00,62.3,59.4,29.77,South,180,2.9,4.9,90,0.00,,,0.00,Weather8,2013-04-19 12:19:00,
2013-04-19 08:24:00,62.3,59.4,29.77,South,180,2.9,2.9,90,0.00,,,0.00,Weather8,2013-04-19 12:24:00,
2013-04-19 08:29:00,62.3,59.4,29.77,South,180,2.9,2.9,90,0.00,,,0.00,Weather8,2013-04-19 12:29:00,
2013-04-19 08:34:00,62.3,59.4,29.77,South,180,2.9,2.9,90,0.00,,,0.00,Weather8,2013-04-19 12:34:00,
2013-04-19 08:39:00,62.3,59.4,29.77,South,180,2.9,2.9,90,0.00,,,0.00,Weather8,2013-04-19 12:39:00,
2013-04-19 08:44:00,64.6,60.7,29.76,South,180,3.8,3.8,87,0.00,,,0.00,Weather8,2013-04-19 12:44:00,
2013-04-19 08:49:00,65.0,61.0,29.76,West,270,5.1,5.4,87,0.00,,,0.00,Weather8,2013-04-19 12:49:00,
2013-04-19 08:54:00,65.2,60.6,29.76,SW,225,4.7,9.4,85,0.00,,,0.00,Weather8,2013-04-19 12:54:00,
2013-04-19 08:59:00,65.2,60.8,29.76,South,180,2.5,9.4,86,0.00,,,0.00,Weather8,2013-04-19 12:59:00,
2013-04-19 09:04:00,65.9,61.6,29.76,SW,225,8.7,10.5,86,0.00,,,0.00,Weather8,2013-04-19 13:04:00,
2013-04-19 09:09:00,66.6,61.6,29.75,South,180,5.6,10.5,84,0.00,,,0.00,Weather8,2013-04-19 13:09:00,
2013-04-19 09:14:00,67.0,61.9,29.75,SSW,202,7.2,10.5,84,0.00,,,0.00,Weather8,2013-04-19 13:14:00,
2013-04-19 09:19:00,67.0,61.9,29.75,SSE,157,4.5,12.1,84,0.00,,,0.00,Weather8,2013-04-19 13:19:00,
2013-04-19 09:24:00,67.1,61.8,29.75,SSW,202,6.3,12.1,83,0.00,,,0.00,Weather8,2013-04-19 13:24:00,
2013-04-19 09:29:00,67.7,62.4,29.75,South,180,3.4,8.3,83,0.00,,,0.00,Weather8,2013-04-19 13:29:00,
2013-04-19 09:34:00,68.0,62.4,29.75,SSW,202,5.6,8.3,82,0.00,,,0.00,Weather8,2013-04-19 13:34:00,
2013-04-19 09:39:00,68.2,62.2,29.74,SSW,202,8.9,8.9,81,0.00,,,0.00,Weather8,2013-04-19 13:39:00,
2013-04-19 09:44:00,68.8,62.7,29.74,South,180,5.1,8.9,81,0.00,,,0.00,Weather8,2013-04-19 13:44:00,
2013-04-19 09:49:00,69.7,63.2,29.74,SSW,202,5.4,8.9,80,0.00,,,0.00,Weather8,2013-04-19 13:49:00,
2013-04-19 09:54:00,70.2,63.0,29.74,South,180,3.1,11.9,78,0.00,,,0.00,Weather8,2013-04-19 13:54:00,
2013-04-19 09:59:00,70.6,62.9,29.74,South,180,6.0,11.9,77,0.00,,,0.00,Weather8,2013-04-19 13:59:00,
2013-04-19 10:04:00,70.6,62.9,29.74,SW,225,6.9,9.2,77,0.00,,,0.00,Weather8,2013-04-19 14:04:00,
2013-04-19 10:09:00,70.2,62.6,29.74,SW,225,4.5,8.9,77,0.00,,,0.00,Weather8,2013-04-19 14:09:00,
2013-04-19 10:14:00,70.6,62.9,29.73,South,180,6.3,8.9,77,0.00,,,0.00,Weather8,2013-04-19 14:14:00,
2013-04-19 10:19:00,70.9,62.6,29.73,SSW,202,8.5,9.8,75,0.00,,,0.00,Weather8,2013-04-19 14:19:00,
2013-04-19 10:24:00,70.9,62.6,29.73,SSW,202,5.8,10.1,75,0.00,,,0.00,Weather8,2013-04-19 14:24:00,
2013-04-19 10:29:00,71.1,62.7,29.73,SW,225,8.3,11.4,75,0.00,,,0.00,Weather8,2013-04-19 14:29:00,
2013-04-19 10:34:00,71.5,63.5,29.72,SW,225,3.1,11.4,76,0.00,,,0.00,Weather8,2013-04-19 14:34:00,
2013-04-19 10:39:00,71.6,62.9,29.72,SSW,202,6.9,12.3,74,0.00,,,0.00,Weather8,2013-04-19 14:39:00,
2013-04-19 10:44:00,71.8,63.5,29.72,SSW,202,8.7,12.3,75,0.00,,,0.00,Weather8,2013-04-19 14:44:00,
2013-04-19 10:49:00,72.2,63.5,29.71,SW,225,8.1,12.3,74,0.00,,,0.00,Weather8,2013-04-19 14:49:00,
2013-04-19 10:54:00,72.4,64.0,29.71,WSW,247,5.4,8.7,75,0.00,,,0.00,Weather8,2013-04-19 14:54:00,
2013-04-19 10:59:00,72.7,64.0,29.71,SSE,157,5.6,9.8,74,0.00,,,0.00,Weather8,2013-04-19 14:59:00,
2013-04-19 11:04:00,72.7,64.0,29.71,SSW,202,6.0,9.8,74,0.00,,,0.00,Weather8,2013-04-19 15:04:00,
2013-04-19 11:09:00,72.7,63.6,29.71,SSW,202,9.8,9.8,73,0.00,,,0.00,Weather8,2013-04-19 15:09:00,
2013-04-19 11:14:00,72.7,63.6,29.71,SSW,202,8.5,11.0,73,0.00,,,0.00,Weather8,2013-04-19 15:14:00,
2013-04-19 11:19:00,72.4,63.6,29.71,WSW,247,9.6,11.0,74,0.00,,,0.00,Weather8,2013-04-19 15:19:00,
2013-04-19 11:24:00,72.4,64.0,29.71,SW,225,5.4,9.8,75,0.00,,,0.00,Weather8,2013-04-19 15:24:00,
2013-04-19 11:29:00,72.2,63.5,29.71,SSW,202,12.5,12.5,74,0.00,,,0.00,Weather8,2013-04-19 15:29:00,
2013-04-19 11:34:00,71.6,62.9,29.70,SSW,202,6.3,12.5,74,0.00,,,0.00,Weather8,2013-04-19 15:34:00,
2013-04-19 11:39:00,71.6,63.3,29.70,WSW,247,9.4,12.5,75,0.00,,,0.00,Weather8,2013-04-19 15:39:00,
2013-04-19 11:44:00,71.6,63.6,29.70,SW,225,12.5,12.5,76,0.00,,,0.00,Weather8,2013-04-19 15:44:00,
2013-04-19 11:49:00,71.1,63.1,29.70,West,270,9.2,12.5,76,0.00,,,0.00,Weather8,2013-04-19 15:49:00,
2013-04-19 11:54:00,70.7,63.1,29.70,SSW,202,5.1,12.5,77,0.00,,,0.00,Weather8,2013-04-19 15:54:00,
2013-04-19 11:59:00,70.4,63.9,29.70,SSW,202,6.3,10.7,80,0.00,,,0.00,Weather8,2013-04-19 15:59:00,
2013-04-19 12:04:00,69.5,63.4,29.70,SSW,202,8.5,10.3,81,0.00,,,0.00,Weather8,2013-04-19 16:04:00,
2013-04-19 12:09:00,68.8,63.1,29.69,SW,225,6.3,10.3,82,0.00,,,0.00,Weather8,2013-04-19 16:09:00,
2013-04-19 12:14:00,68.6,63.2,29.69,SSW,202,5.1,10.3,83,0.00,,,0.00,Weather8,2013-04-19 16:14:00,
2013-04-19 12:19:00,68.6,63.2,29.69,South,180,7.6,9.4,83,0.00,,,0.00,Weather8,2013-04-19 16:19:00,
2013-04-19 12:24:00,68.6,63.5,29.68,West,270,10.5,12.8,84,0.00,,,0.00,Weather8,2013-04-19 16:24:00,
2013-04-19 12:29:00,68.6,63.5,29.68,SSW,202,4.7,12.8,84,0.00,,,0.00,Weather8,2013-04-19 16:29:00,
2013-04-19 12:34:00,68.8,63.7,29.68,SE,135,5.4,10.5,84,0.00,,,0.00,Weather8,2013-04-19 16:34:00,
2013-04-19 12:39:00,68.9,63.9,29.66,SSW,202,5.4,9.6,84,0.00,,,0.00,Weather8,2013-04-19 16:39:00,
2013-04-19 12:44:00,69.8,64.4,29.66,SE,135,5.8,7.4,83,0.00,,,0.00,Weather8,2013-04-19 16:44:00,
2013-04-19 12:49:00,70.2,63.7,29.66,SSW,202,11.4,11.4,80,0.00,,,0.00,Weather8,2013-04-19 16:49:00,
2013-04-19 12:54:00,70.2,63.7,29.66,SSW,202,10.5,11.4,80,0.00,,,0.00,Weather8,2013-04-19 16:54:00,
2013-04-19 12:59:00,71.1,63.9,29.66,SSW,202,2.9,11.4,78,0.00,,,0.00,Weather8,2013-04-19 16:59:00,
2013-04-19 13:04:00,71.5,63.5,29.66,SSE,157,9.2,10.5,76,0.00,,,0.00,Weather8,2013-04-19 17:04:00,
2013-04-19 13:09:00,71.8,63.5,29.66,South,180,8.9,12.3,75,0.00,,,0.00,Weather8,2013-04-19 17:09:00,
2013-04-19 13:14:00,72.4,64.0,29.65,SSW,202,9.4,12.3,75,0.00,,,0.00,Weather8,2013-04-19 17:14:00,
2013-04-19 13:19:00,73.1,64.0,29.65,SSW,202,11.4,11.4,73,0.00,,,0.00,Weather8,2013-04-19 17:19:00,
2013-04-19 13:24:00,73.4,64.7,29.64,SW,225,6.7,11.4,74,0.00,,,0.00,Weather8,2013-04-19 17:24:00,
2013-04-19 13:29:00,74.3,64.4,29.64,SSW,202,8.1,11.4,71,0.00,,,0.00,Weather8,2013-04-19 17:29:00,
2013-04-19 13:34:00,74.3,64.4,29.64,SSW,202,7.4,10.7,71,0.00,,,0.00,Weather8,2013-04-19 17:34:00,
2013-04-19 13:39:00,74.3,64.4,29.64,SSW,202,7.4,10.7,71,0.00,,,0.00,Weather8,2013-04-19 17:39:00,
2013-04-19 13:44:00,74.3,64.4,29.64,SSW,202,7.4,7.4,71,0.00,,,0.00,Weather8,2013-04-19 17:44:00,
2013-04-19 13:49:00,74.3,64.4,29.64,SSW,202,7.4,7.4,71,0.00,,,0.00,Weather8,2013-04-19 17:49:00,
2013-04-19 13:54:00,74.3,64.4,29.64,SSW,202,7.4,7.4,71,0.00,,,0.00,Weather8,2013-04-19 17:54:00,
2013-04-19 13:59:00,74.3,64.4,29.64,SSW,202,7.4,7.4,71,0.00,,,0.00,Weather8,2013-04-19 17:59:00,
2013-04-19 14:04:00,75.1,64.2,29.63,SSW,202,8.3,11.6,69,0.00,,,0.00,Weather8,2013-04-19 18:04:00,
2013-04-19 14:09:00,75.4,64.1,29.63,South,180,8.5,12.5,68,0.00,,,0.00,Weather8,2013-04-19 18:09:00,
2013-04-19 14:14:00,75.2,63.9,29.62,SSE,157,4.5,12.5,68,0.00,,,0.00,Weather8,2013-04-19 18:14:00,
2013-04-19 14:19:00,75.6,64.3,29.62,SSW,202,5.8,12.5,68,0.00,,,0.00,Weather8,2013-04-19 18:19:00,
2013-04-19 14:24:00,76.5,65.6,29.61,SSW,202,3.4,9.8,69,0.00,,,0.00,Weather8,2013-04-19 18:24:00,
2013-04-19 14:29:00,76.3,65.0,29.61,South,180,6.9,9.8,68,0.00,,,0.00,Weather8,2013-04-19 18:29:00,
2013-04-19 14:34:00,76.0,64.6,29.61,SSW,202,4.7,9.8,68,0.00,,,0.00,Weather8,2013-04-19 18:34:00,
2013-04-19 14:39:00,75.2,64.4,29.61,SSW,202,5.4,12.1,69,0.00,,,0.00,Weather8,2013-04-19 18:39:00,
2013-04-19 14:44:00,74.5,64.5,29.60,South,180,7.2,12.1,71,0.00,,,0.00,Weather8,2013-04-19 18:44:00,
2013-04-19 14:49:00,74.2,64.2,29.60,South,180,9.8,12.1,71,0.00,,,0.00,Weather8,2013-04-19 18:49:00,
2013-04-19 14:54:00,73.8,64.3,29.60,SW,225,5.4,9.8,72,0.00,,,0.00,Weather8,2013-04-19 18:54:00,
2013-04-19 14:59:00,73.6,63.7,29.59,SSW,202,8.9,9.8,71,0.00,,,0.00,Weather8,2013-04-19 18:59:00,
2013-04-19 15:04:00,72.5,63.0,29.59,SSW,202,3.1,9.8,72,0.00,,,0.00,Weather8,2013-04-19 19:04:00,
2013-04-19 15:09:00,71.6,62.6,29.58,SSE,157,9.2,9.8,73,0.00,,,0.00,Weather8,2013-04-19 19:09:00,
2013-04-19 15:14:00,72.0,62.9,29.58,South,180,6.3,9.2,73,0.00,,,0.00,Weather8,2013-04-19 19:14:00,
2013-04-19 15:19:00,71.8,62.3,29.58,ESE,112,5.4,9.2,72,0.00,,,0.00,Weather8,2013-04-19 19:19:00,
2013-04-19 15:24:00,71.1,62.0,29.58,SSW,202,7.6,13.0,73,0.00,,,0.00,Weather8,2013-04-19 19:24:00,
2013-04-19 15:29:00,71.3,62.6,29.57,SSW,202,5.8,13.0,74,0.00,,,0.00,Weather8,2013-04-19 19:29:00,
2013-04-19 15:34:00,71.8,62.7,29.57,SSE,157,3.4,9.2,73,0.00,,,0.00,Weather8,2013-04-19 19:34:00,
2013-04-19 15:39:00,71.8,62.3,29.57,SSE,157,5.8,12.8,72,0.00,,,0.00,Weather8,2013-04-19 19:39:00,
2013-04-19 15:44:00,72.4,62.8,29.57,SW,225,8.5,12.8,72,0.00,,,0.00,Weather8,2013-04-19 19:44:00,
2013-04-19 15:49:00,72.0,62.9,29.57,SSW,202,8.5,11.4,73,0.00,,,0.00,Weather8,2013-04-19 19:49:00,
2013-04-19 15:54:00,72.4,63.3,29.56,SSE,157,5.4,11.4,73,0.00,,,0.00,Weather8,2013-04-19 19:54:00,
2013-04-19 15:59:00,72.5,63.5,29.56,WSW,247,5.4,9.4,73,0.00,,,0.00,Weather8,2013-04-19 19:59:00,
2013-04-19 16:04:00,72.5,63.5,29.56,SW,225,6.9,6.9,73,0.00,,,0.00,Weather8,2013-04-19 20:04:00,
2013-04-19 16:09:00,72.7,63.2,29.56,SSW,202,5.6,6.9,72,0.00,,,0.00,Weather8,2013-04-19 20:09:00,
2013-04-19 16:14:00,72.4,63.3,29.55,South,180,6.3,7.8,73,0.00,,,0.00,Weather8,2013-04-19 20:14:00,
2013-04-19 16:19:00,72.0,62.9,29.55,South,180,10.1,10.5,73,0.00,,,0.00,Weather8,2013-04-19 20:19:00,
2013-04-19 16:24:00,71.6,62.9,29.55,SSW,202,9.6,10.5,74,0.00,,,0.00,Weather8,2013-04-19 20:24:00,
2013-04-19 16:29:00,71.8,63.1,29.55,WSW,247,6.3,10.5,74,0.00,,,0.00,Weather8,2013-04-19 20:29:00,
2013-04-19 16:34:00,72.5,64.2,29.54,SSW,202,3.6,9.8,75,0.00,,,0.00,Weather8,2013-04-19 20:34:00,
2013-04-19 16:39:00,72.5,63.8,29.54,SSW,202,10.5,10.5,74,0.00,,,0.00,Weather8,2013-04-19 20:39:00,
2013-04-19 16:44:00,72.2,63.5,29.53,SW,225,10.5,10.5,74,0.00,,,0.00,Weather8,2013-04-19 20:44:00,
2013-04-19 16:49:00,71.8,63.1,29.53,South,180,3.8,10.5,74,0.00,,,0.00,Weather8,2013-04-19 20:49:00,
2013-04-19 16:54:00,71.6,62.9,29.53,SW,225,7.6,10.5,74,0.00,,,0.00,Weather8,2013-04-19 20:54:00,
2013-04-19 16:59:00,71.5,62.7,29.53,SW,225,11.4,12.8,74,0.00,,,0.00,Weather8,2013-04-19 20:59:00,
2013-04-19 17:04:00,71.3,62.6,29.53,South,180,5.4,12.8,74,0.00,,,0.00,Weather8,2013-04-19 21:04:00,
2013-04-19 17:09:00,71.3,62.6,29.53,South,180,5.4,12.8,74,0.00,,,0.00,Weather8,2013-04-19 21:09:00,
2013-04-19 17:14:00,71.3,62.6,29.53,South,180,5.4,5.4,74,0.00,,,0.00,Weather8,2013-04-19 21:14:00,
2013-04-19 17:19:00,71.3,62.6,29.53,South,180,5.4,5.4,74,0.00,,,0.00,Weather8,2013-04-19 21:19:00,
2013-04-19 17:24:00,71.3,62.6,29.53,South,180,5.4,5.4,74,0.00,,,0.00,Weather8,2013-04-19 21:24:00,
2013-04-19 17:29:00,71.3,62.6,29.53,South,180,5.4,5.4,74,0.00,,,0.00,Weather8,2013-04-19 21:29:00,
2013-04-19 17:34:00,69.7,62.5,29.52,SSW,202,10.3,10.3,78,0.00,,,0.00,Weather8,2013-04-19 21:34:00,
2013-04-19 17:39:00,69.7,62.8,29.52,SSW,202,9.6,12.1,79,0.00,,,0.00,Weather8,2013-04-19 21:39:00,
2013-04-19 17:44:00,69.5,63.0,29.53,SSW,202,6.7,12.1,80,0.00,,,0.00,Weather8,2013-04-19 21:44:00,
2013-04-19 17:49:00,69.1,63.1,29.53,SSW,202,12.5,14.1,81,0.00,,,0.00,Weather8,2013-04-19 21:49:00,
2013-04-19 17:54:00,68.8,63.1,29.53,SSE,157,7.4,14.1,82,0.00,,,0.00,Weather8,2013-04-19 21:54:00,
2013-04-19 17:59:00,68.4,62.7,29.53,SSW,202,12.1,13.4,82,0.00,,,0.00,Weather8,2013-04-19 21:59:00,
2013-04-19 18:04:00,68.2,62.6,29.53,SSE,157,6.5,13.4,82,0.00,,,0.00,Weather8,2013-04-19 22:04:00,
2013-04-19 18:09:00,68.0,62.7,29.53,SSW,202,7.2,12.1,83,0.00,,,0.00,Weather8,2013-04-19 22:09:00,
2013-04-19 18:14:00,67.7,62.4,29.52,SSE,157,5.1,7.6,83,0.00,,,0.00,Weather8,2013-04-19 22:14:00,
2013-04-19 18:19:00,67.7,62.6,29.52,South,180,8.7,11.9,84,0.00,,,0.00,Weather8,2013-04-19 22:19:00,
2013-04-19 18:24:00,67.3,62.3,29.52,SSW,202,10.5,12.1,84,0.00,,,0.00,Weather8,2013-04-19 22:24:00,
2013-04-19 18:29:00,67.3,62.3,29.52,SW,225,5.1,12.1,84,0.00,,,0.00,Weather8,2013-04-19 22:29:00,
2013-04-19 18:34:00,67.3,62.6,29.53,SSW,202,5.4,10.5,85,0.00,,,0.00,Weather8,2013-04-19 22:34:00,
2013-04-19 18:39:00,67.3,62.6,29.53,SSW,202,5.4,5.4,85,0.00,,,0.00,Weather8,2013-04-19 22:39:00,
2013-04-19 18:44:00,67.3,62.6,29.53,SSW,202,5.4,5.4,85,0.00,,,0.00,Weather8,2013-04-19 22:44:00,
2013-04-19 18:49:00,67.3,62.6,29.53,SSW,202,5.4,5.4,85,0.00,,,0.00,Weather8,2013-04-19 22:49:00,
2013-04-19 18:54:00,67.3,62.6,29.53,SSW,202,5.4,5.4,85,0.00,,,0.00,Weather8,2013-04-19 22:54:00,
2013-04-19 18:59:00,67.3,62.6,29.53,SSW,202,5.4,5.4,85,0.00,,,0.00,Weather8,2013-04-19 22:59:00,
2013-04-19 19:04:00,65.9,61.6,29.52,South,180,6.9,6.9,86,0.00,,,0.00,Weather8,2013-04-19 23:04:00,
2013-04-19 19:09:00,65.7,61.8,29.51,SW,225,7.6,8.3,87,0.00,,,0.00,Weather8,2013-04-19 23:09:00,
2013-04-19 19:14:00,65.3,61.4,29.51,SSW,202,7.6,8.3,87,0.00,,,0.00,Weather8,2013-04-19 23:14:00,
2013-04-19 19:19:00,65.2,61.2,29.52,SSW,202,10.5,10.5,87,0.00,,,0.00,Weather8,2013-04-19 23:19:00,
2013-04-19 19:24:00,65.2,61.6,29.52,SSW,202,8.5,10.5,88,0.00,,,0.00,Weather8,2013-04-19 23:24:00,
2013-04-19 19:29:00,65.2,61.2,29.51,SSW,202,9.6,10.5,87,0.00,,,0.00,Weather8,2013-04-19 23:29:00,
2013-04-19 19:34:00,65.0,61.0,29.51,South,180,7.4,9.8,87,0.00,,,0.00,Weather8,2013-04-19 23:34:00,
2013-04-19 19:39:00,65.0,61.0,29.51,South,180,5.1,9.6,87,0.00,,,0.00,Weather8,2013-04-19 23:39:00,
2013-04-19 19:44:00,64.8,60.8,29.51,SSW,202,7.8,8.5,87,0.00,,,0.00,Weather8,2013-04-19 23:44:00,
2013-04-19 19:49:00,64.8,60.8,29.50,South,180,6.9,11.2,87,0.00,,,0.00,Weather8,2013-04-19 23:49:00,
2013-04-19 19:54:00,64.8,60.8,29.51,SW,225,11.0,11.2,87,0.00,,,0.00,Weather8,2013-04-19 23:54:00,
2013-04-19 19:59:00,64.6,60.7,29.50,SE,135,6.9,11.0,87,0.00,,,0.00,Weather8,2013-04-19 23:59:00,
2013-04-19 20:04:00,64.6,60.7,29.50,South,180,8.1,11.0,87,0.00,,,0.00,Weather8,2013-04-20 00:04:00,
2013-04-19 20:09:00,64.6,60.7,29.50,South,180,6.3,8.1,87,0.00,,,0.00,Weather8,2013-04-20 00:09:00,
2013-04-19 20:14:00,64.6,60.7,29.50,SSW,202,7.2,10.5,87,0.00,,,0.00,Weather8,2013-04-20 00:14:00,
2013-04-19 20:19:00,64.4,60.6,29.50,SSW,202,11.9,11.9,87,0.00,,,0.00,Weather8,2013-04-20 00:19:00,
2013-04-19 20:24:00,64.4,60.6,29.50,WSW,247,8.3,11.9,87,0.00,,,0.00,Weather8,2013-04-20 00:24:00,
2013-04-19 20:29:00,64.4,60.6,29.50,SSE,157,10.7,11.9,87,0.00,,,0.00,Weather8,2013-04-20 00:29:00,
2013-04-19 20:34:00,64.4,60.6,29.50,SSW,202,7.6,11.4,87,0.00,,,0.00,Weather8,2013-04-20 00:34:00,
2013-04-19 20:39:00,64.3,60.7,29.51,SSE,157,11.9,11.9,88,0.00,,,0.00,Weather8,2013-04-20 00:39:00,
2013-04-19 20:44:00,64.3,60.7,29.51,SSW,202,8.5,11.9,88,0.00,,,0.00,Weather8,2013-04-20 00:44:00,
2013-04-19 20:49:00,64.4,60.8,29.51,SSW,202,6.3,11.9,88,0.00,,,0.00,Weather8,2013-04-20 00:49:00,
2013-04-19 20:54:00,64.4,60.8,29.51,SSW,202,8.3,11.6,88,0.00,,,0.00,Weather8,2013-04-20 00:54:00,
2013-04-19 20:59:00,64.6,61.0,29.50,SSW,202,6.5,11.6,88,0.00,,,0.00,Weather8,2013-04-20 00:59:00,
2013-04-19 21:04:00,64.8,61.2,29.50,South,180,7.8,11.6,88,0.00,,,0.00,Weather8,2013-04-20 01:04:00,
2013-04-19 21:09:00,65.0,61.4,29.50,South,180,5.4,8.9,88,0.00,,,0.00,Weather8,2013-04-20 01:09:00,
2013-04-19 21:14:00,65.2,61.6,29.49,SSW,202,10.5,10.5,88,0.00,,,0.00,Weather8,2013-04-20 01:14:00,
2013-04-19 21:19:00,65.2,61.8,29.49,South,180,8.5,10.5,89,0.00,,,0.00,Weather8,2013-04-20 01:19:00,
2013-04-19 21:24:00,65.5,62.2,29.49,SSW,202,9.4,10.5,89,0.00,,,0.00,Weather8,2013-04-20 01:24:00,
2013-04-19 21:29:00,65.9,62.6,29.49,West,270,13.4,13.4,89,0.00,,,0.00,Weather8,2013-04-20 01:29:00,
2013-04-19 21:34:00,66.1,62.7,29.49,SSW,202,6.7,13.4,89,0.00,,,0.00,Weather8,2013-04-20 01:34:00,
2013-04-19 21:39:00,66.2,62.8,29.49,SW,225,14.5,14.5,89,0.00,,,0.00,Weather8,2013-04-20 01:39:00,
2013-04-19 21:44:00,66.6,63.2,29.49,SSW,202,17.9,17.9,89,0.00,,,0.00,Weather8,2013-04-20 01:44:00,
2013-04-19 21:49:00,66.8,63.1,29.50,SW,225,12.8,17.9,88,0.00,,,0.00,Weather8,2013-04-20 01:49:00,
2013-04-19 21:54:00,67.0,63.3,29.51,SSW,202,7.8,17.9,88,0.00,,,0.00,Weather8,2013-04-20 01:54:00,
2013-04-19 21:59:00,67.0,63.3,29.51,SW,225,11.4,12.8,88,0.00,,,0.00,Weather8,2013-04-20 01:59:00,
2013-04-19 22:04:00,67.1,63.5,29.52,SW,225,11.6,14.3,88,0.00,,,0.00,Weather8,2013-04-20 02:04:00,
2013-04-19 22:15:00,67.0,63.5,29.51,SSW,202,7.4,7.4,89,0.00,,,0.00,Weather8,2013-04-20 02:15:00,
2013-04-19 22:20:00,66.8,63.4,29.51,SW,225,5.1,7.4,89,0.00,,,0.00,Weather8,2013-04-20 02:20:00,
2013-04-19 22:25:00,66.6,63.2,29.51,SSW,202,5.8,7.4,89,0.00,,,0.00,Weather8,2013-04-20 02:25:00,
2013-04-19 22:30:00,66.6,63.2,29.51,SSW,202,6.9,7.8,89,0.00,,,0.00,Weather8,2013-04-20 02:30:00,
2013-04-19 22:35:00,66.6,63.2,29.51,SSW,202,4.7,7.8,89,0.00,,,0.00,Weather8,2013-04-20 02:35:00,
2013-04-19 22:40:00,66.4,63.4,29.51,South,180,5.8,7.8,90,0.00,,,0.00,Weather8,2013-04-20 02:40:00,
2013-04-19 22:45:00,66.4,63.0,29.52,SW,225,5.8,6.9,89,0.00,,,0.00,Weather8,2013-04-20 02:45:00,
2013-04-19 22:50:00,66.4,63.0,29.51,SSW,202,7.2,7.2,89,0.00,,,0.00,Weather8,2013-04-20 02:50:00,
2013-04-19 22:55:00,66.2,62.8,29.53,WNW,292,4.0,7.2,89,0.00,,,0.00,Weather8,2013-04-20 02:55:00,
2013-04-19 23:01:00,66.4,62.7,29.52,SSW,202,5.4,5.4,88,0.00,,,0.00,Weather8,2013-04-20 03:01:00,
2013-04-19 23:06:00,66.4,63.0,29.52,SSE,157,9.8,10.5,89,0.00,,,0.00,Weather8,2013-04-20 03:06:00,
2013-04-19 23:11:00,66.1,62.7,29.51,SSW,202,6.9,10.5,89,0.00,,,0.00,Weather8,2013-04-20 03:11:00,
2013-04-19 23:16:00,65.9,62.6,29.51,SSW,202,4.0,9.8,89,0.00,,,0.00,Weather8,2013-04-20 03:16:00,
2013-04-19 23:21:00,65.9,62.6,29.51,SSW,202,5.4,6.9,89,0.00,,,0.00,Weather8,2013-04-20 03:21:00,
2013-04-19 23:26:00,65.5,61.8,29.51,SSW,202,4.0,6.9,88,0.00,,,0.00,Weather8,2013-04-20 03:26:00,
2013-04-19 23:31:00,65.5,62.2,29.51,SSW,202,4.0,5.4,89,0.00,,,0.00,Weather8,2013-04-20 03:31:00,
2013-04-19 23:36:00,65.3,62.0,29.51,SSW,202,2.9,8.1,89,0.00,,,0.00,Weather8,2013-04-20 03:36:00,
2013-04-19 23:41:00,65.2,61.8,29.51,SSW,202,6.9,8.1,89,0.00,,,0.00,Weather8,2013-04-20 03:41:00,
2013-04-19 23:46:00,65.2,61.8,29.51,SSW,202,6.5,8.1,89,0.00,,,0.00,Weather8,2013-04-20 03:46:00,
2013-04-19 23:51:00,65.2,62.2,29.50,SSE,157,4.7,6.9,90,0.00,,,0.00,Weather8,2013-04-20 03:51:00,
2013-04-19 23:56:00,65.0,62.0,29.51,WSW,247,3.1,6.5,90,0.00,,,0.00,Weather8,2013-04-20 03:56:00,